Wind_Speed
28 23 22 26 28 30 31 31 31 32 33 34 35 35 35 34 34 33 33 32 31 30 29 28 27 26 26 25 25 24 24 24 25 26 27 28 29 30 31 32 33 33 34 36 38 40 42 43 44 44 43 42 41 40 40 40 40 41 41 42 43 44 43 41 40 39 38 36 34 33 34 34 34 34 34 35 35 35 38 39 38 39 41 42 43
32 28 25 26 27 28 29 28 28 30 31 33 33 34 35 34 34 34 33 32 30 29 29 28 27 26 26 25 25 24 24 24 26 27 28 29 29 30 31 31 33 35 37 39 40 41 43 44 45 45 43 42 41 41 41 40 41 42 43 43 44 45 44 42 41 40 38 36 34 32 32 32 33 34 36 38 39 40 43 43 40 39 39 41 43
34 32 28 26 26 27 28 29 29 30 31 32 33 34 35 35 36 36 35 33 32 31 31 30 29 28 27 26 26 26 27 28 28 29 29 31 31 32 32 34 36 39 41 41 41 42 42 43 44 44 43 43 42 42 42 42 42 43 44 44 44 45 44 43 42 41 40 38 36 35 33 32 33 35 38 40 42 44 46 45 41 38 37 37 39
35 32 30 29 28 28 29 30 31 33 33 34 35 36 38 38 39 40 38 36 35 34 34 34 34 33 33 32 32 32 32 32 32 32 31 31 33 35 36 39 41 43 43 43 43 43 43 42 43 43 44 44 44 44 44 45 45 45 44 43 43 44 44 44 43 42 41 40 41 40 37 35 34 35 39 42 44 46 46 44 42 40 38 37 37
34 34 33 33 31 30 30 29 29 31 33 35 36 36 37 38 39 40 40 38 37 36 37 37 37 37 37 36 36 35 35 36 36 35 34 35 37 39 42 44 45 45 45 46 46 44 43 43 43 43 44 45 46 47 47 47 46 45 44 43 43 43 44 44 44 44 43 44 45 43 42 41 39 38 41 44 45 46 45 45 44 43 41 40 39
32 33 33 33 31 30 29 29 29 30 32 33 34 35 37 38 40 40 40 39 37 37 39 39 39 39 38 37 37 38 39 39 40 39 40 41 43 45 47 48 48 49 48 48 46 45 43 43 43 44 45 47 48 48 48 47 46 45 44 43 43 44 45 45 46 46 47 48 48 46 45 45 44 43 43 45 46 47 47 47 46 45 44 43 42
31 34 33 35 36 35 36 35 34 34 33 33 35 37 38 39 41 42 42 42 40 39 40 41 42 42 42 41 41 42 43 43 43 44 44 46 47 49 51 51 51 51 50 48 46 45 43 43 44 45 46 46 46 46 45 44 44 44 44 45 46 47 48 48 49 50 51 51 50 48 48 49 48 47 47 47 48 49 50 50 50 49 48 47 47
34 34 33 33 34 36 38 37 35 34 35 35 38 40 39 39 40 43 44 44 42 41 42 44 45 45 45 45 46 46 47 47 47 48 49 50 52 53 54 53 52 51 49 47 46 44 43 43 44 44 44 44 43 42 42 43 44 45 46 47 49 50 51 51 52 52 52 52 51 51 52 52 52 51 51 52 52 53 54 54 54 54 54 53 53
34 33 32 33 32 33 34 35 33 34 36 38 41 43 43 42 43 44 46 47 46 45 46 46 46 46 46 46 47 48 49 49 50 51 53 55 56 56 55 53 52 50 48 47 45 44 43 43 42 42 42 42 42 42 43 44 45 46 48 50 51 53 54 54 54 54 54 54 54 55 56 56 56 55 55 56 57 58 59 59 60 60 60 60 59
36 34 34 34 34 34 34 35 36 37 39 40 41 43 44 45 47 47 48 48 48 48 49 48 48 48 48 48 49 50 52 53 55 56 56 57 56 56 55 53 51 49 48 46 45 44 43 41 41 41 42 42 43 44 45 46 46 47 49 51 53 54 55 55 56 56 56 57 58 59 60 60 60 60 60 61 62 63 64 65 65 65 65 65 65
43 40 38 36 35 35 37 38 39 40 41 41 42 44 45 45 46 46 46 46 47 48 49 50 51 51 52 53 53 54 56 57 58 58 57 57 57 56 54 52 51 49 47 46 45 43 42 41 41 42 42 43 44 45 46 46 47 48 49 51 53 54 55 56 56 57 59 60 61 62 62 62 62 63 64 65 67 68 69 69 69 69 69 69 69
52 50 48 45 43 43 43 43 43 43 43 41 41 42 43 43 44 45 47 49 51 52 53 54 55 55 56 56 57 58 58 58 58 58 58 58 57 55 53 52 51 50 49 47 45 44 43 43 43 44 44 44 45 46 47 48 49 51 52 53 54 55 56 57 59 61 62 63 63 63 64 64 65 66 68 69 70 71 71 72 72 73 73 73 73
59 58 57 55 53 53 52 51 51 51 51 50 48 49 50 51 53 54 56 57 58 58 58 59 59 59 60 60 61 61 61 60 60 59 59 58 56 55 54 54 53 51 49 47 46 46 46 46 46 46 46 47 48 49 50 52 53 54 55 57 58 60 61 62 63 64 64 64 65 65 66 68 69 70 71 72 73 74 74 75 75 75 76 76 76
63 63 62 60 59 58 57 56 55 56 57 58 58 59 60 61 62 62 63 63 62 62 62 62 62 62 63 64 64 65 64 63 63 61 60 58 56 56 56 54 52 49 47 46 47 49 50 50 49 49 50 51 53 54 55 56 57 59 60 62 63 65 66 66 67 67 67 67 68 69 71 72 74 75 76 77 77 77 78 78 78 78 78 78 78
65 66 66 65 63 62 60 59 57 58 59 59 59 60 62 61 61 61 61 62 62 63 63 64 64 65 65 66 66 67 67 67 66 65 63 62 61 60 58 54 52 51 51 51 52 53 54 54 54 54 54 55 56 57 59 60 61 63 64 66 67 69 69 70 70 71 72 73 74 75 76 77 78 79 80 81 81 80 80 80 80 80 80 80 81
66 68 68 68 67 67 65 64 62 62 62 61 61 62 62 61 61 61 62 63 64 65 66 66 67 67 68 68 68 68 67 67 66 66 67 68 67 65 62 61 60 60 60 59 59 59 59 60 60 60 61 61 62 63 63 65 66 67 68 68 70 71 71 72 74 75 77 79 80 80 80 80 80 80 80 80 79 79 79 78 78 79 79 80 81
66 68 69 70 70 70 70 69 68 68 67 67 67 67 67 66 66 66 67 68 68 69 70 70 70 69 69 70 70 69 68 67 66 65 67 68 67 65 64 64 65 66 66 66 66 65 66 66 67 67 68 68 69 70 71 72 73 74 74 75 75 76 77 78 79 79 80 81 82 82 82 81 81 80 79 78 77 76 76 76 76 76 77 78 79
66 66 68 71 72 73 73 73 73 73 72 73 75 75 74 74 73 72 72 72 71 71 72 72 72 70 69 70 72 71 71 71 70 70 69 69 68 68 67 68 70 71 71 72 72 72 73 73 74 74 74 74 75 75 76 77 78 79 80 81 81 81 81 81 81 81 82 82 81 81 80 80 78 77 77 76 76 76 76 76 76 77 78 79 79
66 66 66 68 70 72 73 74 75 75 76 77 79 79 79 79 79 78 77 76 75 74 74 74 73 72 71 73 74 74 73 72 72 72 72 72 72 73 73 74 75 76 76 76 77 78 79 79 80 80 80 80 80 80 81 81 81 81 82 82 82 82 82 82 82 83 82 82 81 80 79 78 77 76 75 75 75 75 76 76 77 78 80 81 82
70 69 67 67 68 69 71 73 75 75 76 77 78 79 79 80 79 79 79 79 78 77 77 77 76 75 74 75 76 75 74 74 74 75 76 76 77 78 78 79 79 80 80 81 81 82 82 82 82 82 82 82 82 82 82 82 82 82 82 83 83 83 83 83 84 84 83 82 81 80 79 78 77 77 76 76 75 76 76 77 78 80 81 82 83
74 73 72 71 70 70 71 72 73 74 75 76 77 78 78 79 78 78 79 79 80 80 80 80 80 79 79 80 80 80 80 81 81 81 81 82 82 82 83 83 84 85 85 85 85 85 84 83 82 82 81 82 83 83 84 83 83 83 83 83 84 83 84 84 84 84 84 83 82 81 80 80 79 79 79 78 78 78 78 79 80 81 82 83 84
76 76 76 76 76 75 74 74 74 74 75 77 78 79 80 80 80 81 81 82 82 83 83 84 84 84 85 85 86 86 87 87 87 87 87 87 87 87 88 88 88 88 88 87 86 85 83 83 82 82 82 83 83 83 83 83 84 84 85 85 85 84 85 85 85 85 85 85 84 83 83 83 83 82 82 82 81 81 81 81 82 83 84 85 86
76 75 75 76 76 77 78 78 77 77 78 79 80 81 82 82 83 84 85 86 86 86 87 88 88 89 89 90 91 91 91 91 92 92 93 92 92 91 91 91 90 90 89 88 87 86 85 85 85 84 84 83 83 83 83 84 86 86 87 86 86 86 86 87 87 87 87 87 86 86 86 86 86 85 84 84 84 83 82 82 83 83 84 85 86
78 77 76 75 76 76 78 79 80 81 81 82 82 83 84 84 85 85 86 87 88 89 90 90 91 92 93 93 93 94 93 94 94 94 93 92 91 90 90 89 89 89 88 88 88 88 88 88 86 85 84 83 83 84 85 87 88 89 89 89 89 89 89 90 90 90 89 89 89 89 89 90 89 88 86 85 84 83 83 83 83 83 84 84 84
78 79 79 79 78 77 77 78 79 80 81 82 83 84 85 86 86 86 86 87 88 88 89 90 91 93 93 93 93 93 92 92 92 90 90 90 89 87 86 85 85 85 85 86 87 88 88 88 87 87 86 86 87 88 90 91 92 93 93 93 93 92 92 92 92 91 91 91 92 92 93 93 91 90 88 86 84 83 82 82 82 81 81 81 81
79 80 80 80 80 79 79 80 80 80 81 81 82 83 84 84 85 85 86 86 86 87 87 88 89 90 90 90 90 90 89 89 89 89 90 89 88 87 86 85 85 86 87 88 89 91 91 90 90 91 91 91 91 93 94 96 97 97 97 96 95 94 94 94 94 93 93 94 94 96 96 94 92 90 88 86 84 82 82 81 80 79 78 78 78
79 79 80 80 80 80 80 81 82 83 83 83 83 84 84 84 84 85 85 86 87 87 88 88 88 89 89 89 90 90 90 90 90 92 93 92 91 92 92 91 91 92 92 93 95 95 94 94 95 95 95 94 94 95 97 99 102 102 101 100 99 98 97 96 96 96 96 96 97 98 97 94 92 90 87 84 82 81 80 79 77 76 75 74 74
80 80 81 81 81 81 82 83 84 84 85 85 85 86 86 86 86 87 87 88 88 89 89 90 90 91 91 92 92 93 94 94 95 97 98 98 98 98 98 97 98 97 97 98 99 99 98 99 100 100 98 97 96 97 100 103 106 106 105 104 104 102 101 100 100 99 100 100 100 99 97 93 90 86 82 79 77 75 73 71 69 68 66 66 66
82 83 83 84 84 84 84 85 85 85 86 87 88 88 89 90 90 90 90 91 91 91 90 90 91 92 93 94 95 96 97 99 99 99 100 101 102 102 102 103 103 102 101 102 102 102 103 104 104 104 103 102 101 101 103 105 107 108 108 108 108 107 106 104 103 103 103 103 103 100 95 91 87 83 79 74 71 68 65 62 59 58 58 58 60
82 83 84 85 85 85 85 85 85 86 87 88 89 90 91 92 93 93 93 94 94 94 94 94 94 94 95 97 98 99 99 100 101 101 101 102 103 104 105 105 106 106 105 105 105 106 107 108 107 107 108 107 106 105 105 106 107 109 109 109 109 110 109 108 107 106 106 106 105 101 96 91 88 84 79 74 70 66 61 58 55 54 55 56 59
84 84 85 85 86 86 87 87 88 88 89 89 90 90 91 92 93 94 95 95 95 95 96 96 96 97 97 98 99 100 101 101 102 103 103 104 104 105 106 107 107 108 108 108 108 108 109 110 109 109 110 110 109 108 107 107 108 109 109 109 109 110 110 110 108 107 107 107 106 102 97 93 89 86 81 76 71 66 61 57 55 54 55 56 57
86 86 86 87 88 89 89 90 90 91 91 91 92 92 93 93 94 95 96 97 97 98 98 98 98 99 100 100 101 103 104 105 105 105 106 106 106 107 108 109 109 109 109 109 109 109 109 110 110 110 111 111 111 110 109 109 109 109 110 111 111 110 109 108 107 106 106 105 103 100 96 93 89 85 81 77 72 66 61 58 56 55 55 56 57
89 89 89 90 91 91 92 92 93 93 93 94 94 95 96 96 96 97 98 98 99 100 100 101 101 102 102 103 104 105 106 107 108 108 108 107 107 107 108 109 110 110 109 109 109 109 110 110 111 111 111 112 112 111 111 110 109 109 109 110 110 108 106 105 105 105 104 102 99 97 95 92 88 85 81 77 73 67 62 59 57 57 57 57 58
91 91 92 92 93 94 94 95 95 96 96 96 97 97 98 99 99 100 100 101 102 102 103 103 104 104 105 105 106 106 107 108 109 109 109 109 108 108 109 109 110 110 110 109 109 109 109 109 110 110 110 110 109 109 108 107 105 105 105 105 105 103 102 102 102 101 100 98 96 94 93 90 87 83 80 76 72 67 63 61 59 59 59 59 57
92 93 93 94 95 95 96 97 97 98 98 99 99 100 100 101 101 102 103 104 105 105 105 105 105 105 106 107 108 109 109 109 109 109 109 109 109 108 108 107 106 106 105 105 104 104 104 104 104 104 104 104 103 102 100 99 98 96 96 96 97 97 97 96 96 96 95 94 93 92 90 87 84 81 78 73 69 65 63 62 61 60 60 58 54
93 94 95 95 96 97 98 99 99 100 101 101 102 102 102 103 104 104 105 106 107 107 108 108 107 107 107 107 108 109 109 109 108 107 106 105 104 103 102 100 99 97 96 95 94 94 94 95 95 95 95 95 95 94 92 91 90 89 88 88 90 92 92 91 89 89 89 89 90 89 86 83 80 77 74 70 67 64 63 62 61 60 58 55 51
93 94 95 96 97 98 99 100 101 102 102 103 104 104 105 105 106 107 107 108 108 109 109 109 109 109 107 106 105 105 104 104 103 101 99 97 95 93 92 90 89 88 87 86 85 85 84 85 86 86 87 87 87 86 84 83 83 83 82 83 85 87 86 85 84 84 84 85 85 83 81 78 76 73 70 68 66 64 62 62 61 60 56 52 49
90 91 92 93 94 96 97 98 99 100 101 102 103 103 104 105 106 106 107 107 107 106 106 106 106 105 104 102 99 97 96 94 93 91 90 88 87 86 84 82 81 80 80 79 78 78 77 77 78 79 80 81 81 79 77 76 76 77 77 78 80 82 81 80 80 80 80 79 78 76 74 72 70 67 66 65 64 62 62 62 61 58 54 50 47
85 85 86 87 88 89 90 91 93 94 95 96 96 97 98 99 99 100 100 100 100 99 99 98 98 97 96 94 91 89 87 86 85 83 82 81 81 80 79 78 76 75 74 74 73 72 70 69 71 73 75 76 75 73 71 71 70 70 71 74 76 77 76 76 76 75 74 72 70 68 67 65 64 63 63 62 61 61 61 60 58 55 51 48 45
80 81 81 82 82 83 84 85 86 86 87 87 88 89 90 91 91 91 91 91 91 90 90 90 89 88 87 86 85 84 82 81 79 78 77 76 75 74 74 72 71 70 69 68 67 66 65 64 65 67 69 69 69 68 67 66 66 66 68 70 72 73 72 71 71 69 66 64 63 62 61 61 60 60 59 59 59 59 59 56 54 51 48 45 43
76 76 76 77 77 78 79 79 79 80 80 81 81 82 83 83 83 83 83 83 83 83 83 83 83 82 81 80 80 79 77 76 74 72 71 69 68 67 67 66 64 63 62 62 62 61 60 60 61 62 63 64 64 64 63 63 63 64 65 67 68 69 67 66 64 63 60 59 58 58 58 58 58 58 57 57 57 56 54 52 50 47 44 41 41
72 72 73 73 74 74 75 75 75 75 75 76 77 77 77 77 77 78 78 78 77 77 78 77 77 76 75 74 73 72 70 68 67 66 64 63 61 61 60 59 58 57 56 57 57 57 56 56 56 57 58 59 59 59 59 60 60 61 62 63 64 63 62 61 60 57 55 54 54 54 55 55 55 55 54 54 54 52 50 48 46 42 39 38 39
69 69 70 70 71 71 72 71 71 71 72 72 72 72 72 72 72 73 72 72 72 72 71 71 70 69 68 66 65 64 63 61 60 59 58 57 56 56 55 55 54 52 51 51 52 52 52 52 53 53 53 54 54 55 56 57 58 58 59 59 59 58 57 56 55 52 50 50 50 50 51 52 52 52 52 51 50 48 46 44 41 38 36 37 37
64 65 65 65 66 67 67 66 67 67 67 67 66 66 66 67 67 67 66 66 66 65 65 65 64 62 61 60 59 58 57 56 55 54 53 52 52 52 51 51 50 49 48 48 48 49 49 49 49 49 49 49 49 51 53 54 55 55 56 55 54 53 52 52 50 48 47 46 46 47 48 50 50 50 49 49 48 46 44 41 37 35 35 36 35
58 58 59 60 61 61 60 60 61 61 61 61 60 60 60 61 61 61 61 60 60 60 60 59 58 57 56 56 55 54 53 52 52 51 50 49 48 48 48 48 48 47 46 46 45 45 45 45 46 46 45 45 45 46 48 49 51 52 52 52 50 49 47 47 46 45 44 44 44 45 46 46 47 47 48 47 46 44 41 38 36 35 35 35 35
52 53 54 55 55 55 55 55 55 56 56 56 56 56 56 56 57 57 57 56 56 56 56 56 54 53 53 52 51 50 50 49 49 48 47 45 45 45 45 45 45 44 44 43 42 42 42 42 42 42 42 41 41 42 43 44 46 47 47 47 46 45 43 42 42 42 42 43 43 43 43 44 45 45 45 45 43 41 38 37 35 35 35 35 34
49 50 51 51 51 51 51 52 52 53 53 53 53 53 53 53 53 54 54 53 53 53 53 52 51 51 50 49 48 48 47 47 46 46 45 44 43 42 42 42 42 42 41 40 40 38 38 38 38 38 38 38 38 39 40 42 42 42 42 42 42 41 40 39 39 39 39 40 41 42 42 42 42 43 42 41 40 37 36 36 35 35 34 34 33
47 48 48 49 49 49 49 49 50 50 50 51 51 51 50 50 50 50 51 50 50 50 49 49 48 48 47 47 46 45 44 44 44 44 44 43 42 41 40 39 39 39 39 38 37 36 35 35 35 36 36 35 35 36 37 38 39 39 38 38 38 37 37 36 36 36 37 37 38 39 40 40 40 40 39 37 36 35 35 35 34 33 33 33 32
46 46 47 47 46 46 47 47 47 48 48 48 48 48 48 48 48 47 47 47 47 47 46 46 46 45 45 45 44 43 42 41 41 42 42 42 41 40 39 37 36 36 37 36 36 35 34 33 33 33 33 33 33 34 34 35 35 35 35 34 34 34 34 34 34 34 34 35 35 36 36 36 36 36 35 34 34 34 34 33 32 32 32 31 31
45 45 45 45 45 45 45 45 45 46 46 46 46 46 46 46 45 45 44 44 43 44 44 44 44 43 43 42 42 41 41 40 40 40 39 39 39 39 38 37 35 34 34 34 33 33 33 32 32 31 31 31 31 31 32 32 33 33 33 32 31 31 31 31 32 32 32 32 33 33 33 33 33 32 32 32 33 33 32 32 31 31 30 30 29
43 43 43 43 43 43 43 43 44 44 44 44 44 44 44 44 43 43 42 42 41 41 41 41 41 41 41 40 40 40 40 39 39 38 38 38 37 37 36 35 34 33 33 32 32 31 31 30 30 29 29 29 29 29 29 30 30 31 31 30 29 29 29 29 29 29 29 30 30 30 30 30 30 30 31 31 31 31 31 30 30 30 29 29 28
Wind_Direction
250 256 266 272 274 275 276 274 271 269 267 266 265 262 260 259 258 257 255 254 256 258 261 264 266 266 267 267 267 267 268 271 273 275 276 277 277 278 278 280 282 284 287 290 292 291 291 290 290 289 288 286 284 282 281 279 277 276 277 278 278 278 277 275 274 274 278 281 280 282 284 281 275 270 267 266 265 275 292 296 286 277 273 271 270
245 251 263 269 272 275 275 272 268 267 265 263 262 260 259 258 257 256 255 255 256 258 261 264 265 267 268 268 268 268 267 268 271 273 274 274 273 274 276 279 283 287 291 294 295 294 293 291 289 288 287 285 283 280 279 278 277 277 279 280 279 277 276 275 275 276 278 279 278 280 284 282 276 271 268 267 267 277 291 295 289 282 277 274 271
244 247 253 260 266 268 265 264 265 265 264 264 264 263 262 261 260 259 259 258 258 259 261 262 264 265 265 265 265 265 266 268 272 275 276 275 275 276 279 283 287 291 294 296 297 297 294 291 288 286 284 283 281 280 278 278 277 278 280 280 277 276 275 276 277 277 278 279 281 283 284 282 280 276 274 273 274 280 288 292 290 287 283 281 277
246 247 248 253 263 267 265 264 265 265 267 268 269 269 268 267 265 264 263 263 262 262 262 262 264 264 265 264 263 262 265 269 274 276 275 275 277 281 285 288 290 293 295 297 299 297 294 291 288 285 283 281 280 279 279 279 280 280 280 279 276 276 276 276 277 278 279 281 285 286 285 285 284 281 279 279 280 284 289 292 293 292 289 287 284
249 251 253 258 264 267 266 265 265 268 270 271 270 269 267 266 266 267 268 268 267 266 265 266 267 269 269 267 264 263 267 272 276 276 273 274 279 285 289 292 293 294 297 298 298 297 294 290 287 284 282 280 279 280 280 281 280 280 280 279 278 277 277 277 277 278 279 283 286 286 286 289 290 286 283 284 286 289 292 294 296 296 294 292 289
253 258 262 264 264 264 262 261 263 267 270 270 266 264 263 264 266 267 268 268 268 268 268 269 270 271 271 269 268 269 272 275 277 276 275 276 281 287 291 293 294 296 297 298 297 296 293 289 285 283 281 280 280 280 280 280 281 282 283 282 280 279 279 279 279 278 280 283 286 285 287 292 293 291 289 288 289 292 294 295 296 297 297 296 294
251 258 262 263 261 259 260 261 261 262 262 262 261 261 263 266 268 269 269 268 267 267 268 269 269 269 268 268 269 271 274 276 276 276 276 277 281 287 291 293 294 295 297 297 296 293 290 287 284 282 281 280 280 280 280 282 283 285 284 283 281 280 280 280 280 280 282 284 284 285 289 293 295 294 293 292 292 293 295 296 297 298 298 298 297
243 251 256 258 256 255 256 258 258 258 257 256 256 259 262 264 267 270 273 274 274 272 270 270 270 270 270 269 270 271 273 274 275 275 276 278 282 287 291 292 294 295 296 295 293 290 287 285 282 281 280 280 280 280 282 285 285 285 283 282 281 280 281 281 282 283 284 285 285 287 291 294 295 295 294 293 293 294 295 297 297 298 299 299 298
236 242 246 248 250 251 252 254 254 253 253 253 254 257 260 263 267 271 275 278 280 279 277 276 276 276 275 274 273 273 273 274 275 276 279 282 285 289 291 294 295 296 295 293 290 287 285 283 281 280 280 280 280 281 284 285 285 283 282 281 281 281 282 283 283 284 285 286 287 290 292 295 296 296 295 294 293 294 296 297 298 299 300 300 299
229 233 237 241 247 251 253 255 255 254 254 255 258 261 263 266 268 271 273 274 276 277 277 278 279 279 278 276 275 276 276 278 280 282 284 287 289 292 294 295 296 295 293 291 288 286 284 282 281 281 281 282 282 282 284 285 284 283 282 281 282 282 283 283 284 284 285 287 289 291 293 295 296 296 296 296 296 297 298 298 299 299 300 299 299
227 229 232 237 244 250 251 252 253 254 257 260 263 266 267 268 268 269 269 271 273 274 275 277 277 277 275 274 275 277 279 281 283 285 287 290 292 294 295 295 294 293 291 289 287 286 285 284 284 284 285 285 284 283 283 284 284 283 283 282 283 283 283 283 283 284 285 287 289 291 292 293 293 294 294 295 296 297 298 298 298 298 298 298 297
232 232 234 237 242 247 249 249 249 251 254 257 259 261 261 262 263 264 267 270 272 273 274 274 275 274 274 274 276 278 280 282 284 286 289 291 292 293 293 292 292 291 290 289 289 289 289 289 288 288 287 286 284 283 283 283 283 283 283 283 283 283 283 283 284 285 287 289 290 291 291 291 291 292 292 293 294 295 296 296 296 296 296 295 295
238 239 241 242 243 246 248 250 251 252 253 253 254 254 255 257 259 263 266 269 270 271 272 273 273 274 274 275 277 279 281 283 284 287 289 290 291 291 291 292 292 292 292 293 293 293 293 292 290 289 287 285 284 283 283 282 282 282 282 283 283 284 285 285 287 288 289 290 290 290 290 290 290 290 291 291 292 292 292 292 292 293 292 292 292
242 243 245 247 247 249 251 253 254 255 255 255 255 256 258 260 262 265 267 269 270 272 273 274 275 275 276 277 279 280 282 283 285 287 288 289 289 290 291 292 291 291 291 292 292 292 291 290 289 287 285 283 282 281 281 281 281 281 282 283 284 285 285 286 287 287 287 287 287 287 287 288 288 288 289 289 289 289 289 288 288 288 288 288 288
244 245 247 249 250 251 253 255 256 258 259 260 260 261 263 265 266 268 270 271 272 274 275 276 276 277 278 280 281 283 285 286 286 287 287 287 288 289 290 289 287 287 287 287 287 287 287 287 286 285 284 282 281 279 279 279 279 280 281 281 282 283 283 284 285 284 284 284 284 284 284 285 286 286 287 287 287 287 287 286 286 286 286 286 285
246 247 248 250 251 253 254 256 257 259 261 263 264 264 265 267 268 270 271 272 274 276 276 277 278 279 280 282 283 285 287 287 287 287 288 288 289 289 289 288 287 288 287 287 285 285 284 284 284 283 283 282 281 280 280 280 280 281 282 282 283 283 284 285 285 285 285 286 286 286 286 286 286 286 286 286 286 285 285 285 285 285 284 284 284
248 249 250 251 252 253 255 256 258 259 261 263 264 264 265 266 268 270 271 273 275 276 276 277 278 279 281 282 283 284 284 285 285 285 286 287 287 287 287 286 287 287 287 286 285 285 284 284 284 283 283 283 282 282 282 283 283 284 284 284 284 285 285 286 287 287 287 288 289 289 289 289 289 288 288 287 287 286 286 286 286 285 285 284 284
251 252 252 252 253 254 255 256 258 260 261 262 262 263 264 266 268 270 272 273 274 275 276 276 277 278 279 280 280 280 282 283 283 283 283 283 283 283 283 283 284 285 285 285 285 285 285 284 284 284 284 284 284 284 284 284 284 285 285 285 286 286 287 287 287 287 288 288 289 289 289 289 289 289 289 289 289 289 289 289 288 288 288 288 288
253 254 254 254 254 255 256 257 258 259 260 261 263 263 264 265 267 269 271 273 274 275 275 276 277 278 278 278 278 280 281 281 281 281 281 281 281 281 282 282 283 283 283 283 284 284 284 284 284 284 285 285 285 285 285 285 286 286 286 286 287 287 287 287 287 288 288 288 288 288 288 288 288 288 288 288 288 289 289 289 289 289 289 290 290
254 254 255 255 256 256 257 258 258 259 260 262 263 265 265 266 267 269 270 272 273 274 275 275 276 277 277 277 277 278 279 279 279 279 280 280 281 281 282 282 282 283 283 283 284 284 284 284 285 285 285 285 285 285 286 286 286 287 287 286 287 287 287 287 288 288 289 289 288 288 287 287 286 286 286 286 286 286 286 286 287 287 288 289 289
256 256 255 256 256 257 257 258 259 260 260 261 262 263 265 266 267 268 269 270 271 272 272 273 273 274 274 274 275 276 276 277 278 279 280 280 281 281 281 282 282 282 283 283 284 284 284 284 284 284 284 284 284 284 285 285 286 286 286 286 287 287 288 289 289 290 290 289 289 288 288 287 287 287 286 285 285 284 284 285 285 285 286 287 287
260 261 260 259 258 258 258 259 260 260 260 260 261 261 262 263 265 266 266 267 268 269 270 270 271 272 272 273 274 275 276 277 278 278 279 279 279 280 280 281 281 282 282 282 283 283 283 283 283 282 282 283 284 285 286 286 286 287 287 287 287 288 289 290 290 290 290 289 289 289 288 288 287 286 286 285 285 284 284 284 284 285 285 285 285
261 263 264 264 263 262 261 261 261 262 263 263 263 263 263 263 263 264 265 266 267 268 269 270 270 271 272 272 273 274 275 276 276 276 277 277 278 279 279 279 279 280 280 280 281 281 281 280 280 281 282 283 285 286 287 288 288 287 287 288 288 289 289 290 290 289 289 289 288 288 287 286 285 284 284 284 283 283 283 283 283 283 283 283 283
259 261 263 266 267 267 267 266 265 265 265 265 265 265 266 266 265 265 266 266 267 268 269 270 270 271 272 272 273 274 275 275 276 276 277 277 277 277 278 278 277 278 278 279 279 280 280 281 282 283 284 285 287 288 289 289 289 289 289 289 289 289 289 289 288 288 288 288 287 287 286 284 283 282 282 282 281 281 281 281 281 280 280 280 281
259 260 261 263 265 268 269 270 270 269 268 268 268 268 269 269 269 269 269 269 269 269 269 270 271 271 272 272 273 273 274 274 275 276 277 277 277 278 278 278 278 278 279 281 282 283 284 285 286 287 288 289 290 290 290 290 289 289 288 288 288 287 287 287 287 288 288 288 287 286 285 284 283 283 283 283 283 283 283 282 282 281 282 282 283
261 261 262 263 265 266 268 269 270 270 270 269 270 270 270 271 271 272 272 272 271 271 271 272 272 273 273 274 274 274 275 276 277 278 279 279 281 283 284 284 283 284 285 286 286 287 287 288 289 289 289 290 290 290 290 289 288 288 287 287 287 287 287 287 288 288 288 287 287 286 285 285 285 285 285 286 286 286 286 285 285 285 285 286 286
261 262 263 263 264 266 267 269 270 271 271 271 271 272 272 273 273 274 274 275 275 276 276 276 276 277 277 278 279 280 281 282 283 284 284 285 286 287 287 287 287 287 287 288 287 288 288 289 288 288 288 288 288 289 289 288 288 288 288 288 288 288 288 288 288 288 288 288 287 287 286 286 286 286 287 287 287 286 285 285 285 285 285 285 285
260 261 262 262 263 264 266 268 270 270 271 272 272 273 273 273 274 275 275 276 277 278 278 279 280 280 281 281 282 282 283 284 285 285 285 286 286 286 286 286 286 286 287 287 287 288 288 288 288 288 288 288 288 288 288 287 287 288 289 289 289 289 289 289 289 289 289 289 288 288 287 287 287 287 287 286 285 285 284 284 284 284 284 284 284
260 260 261 262 262 264 265 266 267 267 268 269 270 270 271 272 272 273 273 274 274 275 275 276 276 277 278 278 279 279 280 281 281 282 282 282 283 283 284 284 284 285 286 286 286 287 287 286 287 287 287 287 287 287 286 286 287 288 288 289 289 290 290 290 290 290 290 289 289 289 289 289 290 290 290 290 289 289 288 288 287 287 287 286 284
260 260 261 261 262 263 264 264 265 265 265 266 266 267 268 269 270 271 271 272 273 273 274 274 273 273 274 274 275 276 276 277 278 279 279 279 280 280 281 282 283 283 284 284 285 285 285 285 286 286 286 286 286 285 285 286 286 287 287 288 289 289 290 290 290 290 290 290 290 290 291 292 293 293 294 294 294 293 294 294 294 293 291 288 285
261 261 261 262 262 262 263 263 263 264 264 264 265 265 266 266 268 269 269 270 270 271 272 272 273 273 273 273 273 273 274 275 276 276 277 277 278 278 279 279 280 281 281 282 282 282 283 283 284 284 284 285 285 285 285 285 285 286 287 287 287 288 288 288 289 289 289 289 289 290 291 293 293 294 294 295 295 296 297 298 297 295 292 288 286
262 262 262 263 263 263 263 264 264 264 264 264 264 265 265 265 266 267 267 268 269 269 270 270 270 271 271 272 272 273 273 274 274 275 275 276 276 277 277 278 278 279 279 280 280 281 281 282 282 282 283 283 284 284 284 284 284 285 285 285 285 285 286 286 287 287 287 287 287 289 290 291 292 293 293 294 295 297 299 299 297 294 291 289 287
262 263 263 263 264 264 264 265 265 265 265 265 265 266 266 266 267 267 267 268 269 269 270 270 270 270 271 271 271 272 273 274 275 275 275 276 276 277 278 278 279 280 280 280 280 281 281 281 281 282 282 282 282 282 282 282 282 282 282 282 282 283 284 284 284 284 284 285 286 288 289 290 290 291 292 293 296 298 299 298 296 293 291 289 287
262 262 263 263 263 264 264 265 265 266 266 266 266 267 267 268 268 268 269 269 269 270 270 270 271 272 272 272 273 273 273 274 275 276 277 277 278 278 278 278 279 280 280 280 280 280 280 280 280 280 280 279 279 279 278 278 279 279 279 279 280 281 281 281 281 281 282 284 285 286 286 287 288 289 290 292 295 296 296 295 293 291 289 287 286
261 261 262 262 263 263 264 264 265 265 266 266 267 267 268 268 269 269 270 270 270 270 271 271 271 272 273 273 274 275 275 276 276 277 278 279 279 279 279 279 279 279 279 279 279 279 279 278 278 277 277 277 276 276 276 276 276 276 277 277 278 278 277 277 278 279 280 281 282 282 283 284 286 288 290 292 293 293 292 291 289 287 285 285 286
260 261 261 261 262 262 263 264 264 265 266 266 267 268 268 269 269 270 270 271 272 272 273 274 274 274 274 274 275 276 277 278 278 279 279 279 280 280 280 280 279 279 278 278 277 277 276 276 275 275 275 275 275 275 275 275 275 275 275 275 274 274 275 275 276 277 277 278 278 279 281 283 285 287 289 291 291 290 288 287 286 285 284 285 286
260 261 261 261 262 262 262 263 264 264 265 266 267 268 268 269 270 270 271 272 272 273 274 275 276 276 276 277 277 277 278 279 279 280 280 280 280 280 280 279 279 278 278 277 277 276 275 275 275 274 274 274 274 273 274 274 274 273 273 272 272 272 273 274 274 274 274 275 276 278 280 282 284 286 288 288 287 287 286 286 285 284 285 286 287
262 262 262 262 262 263 263 263 264 265 265 266 266 267 268 269 269 270 271 272 273 273 274 275 276 277 278 278 279 279 279 280 280 280 281 281 281 281 281 280 280 279 279 278 277 276 276 275 275 275 274 274 273 273 273 273 272 272 271 271 271 272 272 273 273 272 273 274 276 278 280 282 284 285 284 284 284 284 283 283 283 284 285 287 287
264 264 264 264 264 264 265 265 265 265 266 266 267 268 268 269 270 270 271 272 273 274 275 276 276 277 278 279 280 280 281 281 281 282 282 282 282 282 282 282 281 280 280 279 278 277 276 275 274 273 273 273 274 274 273 272 272 271 270 270 270 270 270 271 271 272 273 275 277 279 280 281 281 280 280 280 280 280 280 280 282 284 285 286 286
266 266 266 266 266 266 266 266 267 267 267 268 268 269 269 270 271 272 272 273 274 275 276 276 277 278 279 280 281 282 282 283 283 283 283 283 283 282 282 281 280 280 279 278 277 277 276 274 273 272 272 273 273 273 272 272 271 269 268 268 268 269 269 270 272 274 276 277 278 278 278 278 277 276 277 277 277 277 278 280 282 283 284 285 284
267 267 267 267 267 268 268 268 268 269 269 269 270 270 271 272 272 273 274 275 275 276 277 278 278 279 280 281 282 283 283 283 283 283 283 282 282 281 280 280 279 279 278 278 277 277 276 274 273 272 272 272 272 272 272 271 270 269 268 268 269 270 271 272 274 274 275 275 275 275 274 274 274 274 275 275 275 275 277 279 280 281 282 282 279
268 268 268 269 269 269 269 269 270 270 271 271 271 272 273 273 274 275 275 276 277 277 278 279 279 280 281 281 282 282 282 283 283 283 282 282 281 281 280 280 280 279 278 278 277 277 276 274 273 271 271 270 271 271 271 270 269 269 268 268 269 270 272 273 273 273 273 272 272 272 272 272 272 272 272 272 273 274 276 276 277 279 279 276 273
268 269 269 269 269 270 270 270 271 271 271 272 273 273 274 274 275 275 276 277 277 278 278 279 280 280 281 281 282 282 282 283 283 283 283 283 283 282 282 282 281 280 279 278 277 277 276 274 273 271 270 270 270 270 269 269 268 268 269 269 270 271 272 273 273 274 273 272 271 270 270 270 270 270 271 271 272 273 274 274 275 276 274 271 268
268 268 268 269 269 269 270 271 271 272 272 273 273 274 274 275 275 276 276 277 278 278 279 279 280 281 282 282 283 283 284 284 284 284 284 284 284 284 284 284 283 282 281 280 278 277 276 275 274 273 271 270 269 269 269 269 270 270 270 270 271 272 273 274 275 275 273 271 270 268 267 267 268 269 270 271 272 272 273 274 274 273 269 266 264
268 268 269 269 269 270 271 271 272 272 273 274 274 275 275 276 276 277 277 278 279 280 280 281 282 282 283 284 284 285 286 286 286 286 286 286 286 286 286 285 285 284 283 281 280 279 278 277 275 274 273 272 270 269 269 269 270 270 271 271 272 272 272 272 273 272 270 269 267 265 264 264 265 265 267 268 270 271 272 273 271 268 265 263 261
269 269 269 270 270 271 272 273 273 274 275 275 276 276 277 277 278 278 279 280 280 281 282 282 283 284 284 285 286 287 287 288 288 288 288 288 288 288 288 287 286 285 283 282 281 280 279 277 277 276 275 273 272 270 269 268 268 268 269 270 271 271 270 269 268 267 266 265 264 263 262 261 261 261 263 264 266 268 269 269 267 264 262 260 259
270 270 271 272 272 273 274 275 275 276 276 277 277 278 278 278 279 280 280 281 282 282 283 283 284 285 286 287 288 289 290 290 290 291 291 290 290 290 289 288 287 285 284 283 282 280 279 278 278 277 275 274 273 271 270 268 268 268 268 269 269 270 269 268 265 264 262 261 260 260 259 259 259 259 261 262 264 265 264 263 261 260 260 259 259
271 271 272 273 274 275 275 276 277 277 278 278 279 279 279 279 280 281 282 282 283 283 284 284 285 286 287 288 289 290 291 291 292 293 293 293 293 292 291 289 288 287 286 285 283 282 280 279 279 278 277 275 274 272 271 270 270 269 269 268 268 268 267 266 264 261 260 258 257 257 257 258 258 259 260 261 261 260 259 259 259 259 259 259 259
272 273 273 274 275 276 276 277 278 279 279 280 280 280 280 280 280 281 282 283 283 284 285 285 286 287 288 289 290 291 291 292 292 293 294 294 294 294 292 291 290 289 288 287 286 284 283 281 280 279 277 276 275 273 272 270 270 269 268 267 266 265 264 263 262 260 259 258 257 257 257 257 257 258 259 259 258 257 257 257 258 258 258 258 258
273 273 274 275 276 277 277 278 279 280 280 280 280 280 281 281 281 282 283 283 284 284 285 286 287 288 289 290 291 292 293 293 293 294 294 294 294 294 293 292 291 290 289 288 286 285 285 284 282 280 279 278 276 275 272 270 269 268 267 265 264 263 261 260 259 258 257 257 256 256 256 257 257 257 256 255 255 255 255 256 256 256 256 255 255
273 274 275 276 277 278 278 279 280 280 281 281 281 281 281 281 282 283 283 284 284 284 285 285 286 288 289 290 291 292 293 294 294 295 295 294 294 293 292 292 291 291 290 288 286 285 285 284 282 280 279 278 277 276 274 272 269 267 266 264 262 261 260 259 258 257 256 256 255 255 255 255 254 254 253 252 252 253 253 253 253 253 253 252 251
Height
10592 10593 10595 10595 10596 10597 10599 10600 10602 10603 10604 10605 10606 10607 10607 10607 10608 10609 10611 10613 10614 10615 10616 10617 10618 10619 10621 10621 10622 10623 10624 10624 10625 10625 10626 10626 10627 10627 10627 10627 10627 10627 10626 10626 10625 10624 10623 10622 10621 10620 10619 10619 10619 10619 10619 10618 10617 10616 10615 10615 10614 10613 10613 10613 10613 10613 10612 10612 10612 10611 10609 10608 10608 10607 10607 10606 10606 10606 10605 10604 10603 10603 10601 10600 10599
10589 10591 10592 10592 10593 10594 10595 10596 10598 10599 10600 10601 10602 10602 10602 10603 10603 10603 10605 10608 10611 10612 10612 10613 10614 10616 10617 10617 10618 10619 10620 10620 10620 10621 10621 10622 10622 10622 10622 10622 10622 10621 10621 10620 10620 10619 10617 10616 10614 10613 10613 10612 10612 10613 10613 10612 10612 10611 10610 10609 10607 10606 10606 10606 10606 10606 10606 10606 10606 10605 10604 10603 10603 10602 10602 10601 10601 10600 10599 10598 10597 10596 10595 10594 10593
10585 10588 10589 10590 10590 10591 10591 10593 10594 10596 10596 10597 10598 10598 10598 10598 10598 10598 10601 10605 10607 10608 10609 10609 10610 10612 10613 10614 10614 10615 10615 10615 10616 10616 10616 10617 10617 10617 10617 10617 10617 10616 10615 10614 10613 10613 10611 10610 10608 10607 10606 10605 10605 10606 10606 10606 10606 10605 10604 10603 10601 10600 10600 10600 10600 10600 10600 10600 10599 10599 10598 10598 10597 10597 10596 10596 10595 10594 10592 10592 10591 10590 10589 10588 10587
10582 10584 10586 10586 10587 10587 10588 10590 10591 10592 10592 10592 10592 10592 10592 10593 10593 10593 10597 10601 10603 10605 10605 10605 10606 10607 10609 10609 10610 10610 10610 10610 10610 10610 10611 10611 10611 10611 10611 10611 10611 10610 10608 10607 10607 10606 10605 10603 10602 10601 10599 10598 10598 10598 10599 10599 10599 10598 10598 10597 10596 10595 10594 10594 10594 10594 10594 10593 10593 10592 10592 10591 10591 10591 10590 10590 10589 10587 10586 10585 10584 10583 10582 10581 10580
10579 10580 10581 10582 10583 10584 10584 10586 10587 10588 10588 10588 10587 10587 10586 10586 10587 10588 10592 10595 10598 10600 10600 10600 10601 10602 10603 10603 10604 10604 10604 10604 10604 10605 10605 10605 10605 10605 10605 10605 10604 10603 10602 10601 10600 10599 10597 10596 10595 10594 10593 10592 10591 10591 10591 10591 10591 10591 10591 10591 10590 10590 10589 10588 10588 10587 10587 10586 10586 10585 10584 10584 10584 10584 10583 10582 10581 10580 10579 10578 10577 10576 10575 10574 10574
10576 10576 10577 10578 10579 10580 10581 10582 10583 10584 10584 10583 10582 10581 10581 10580 10581 10583 10586 10589 10592 10593 10594 10595 10596 10596 10597 10597 10598 10598 10598 10598 10599 10599 10599 10599 10599 10598 10598 10598 10597 10596 10595 10594 10593 10592 10591 10589 10588 10588 10587 10586 10585 10585 10584 10583 10583 10583 10583 10583 10583 10583 10583 10582 10581 10581 10580 10580 10579 10578 10577 10576 10576 10575 10575 10575 10573 10572 10571 10570 10570 10569 10568 10567 10567
10571 10571 10573 10573 10574 10576 10577 10577 10578 10579 10579 10579 10578 10576 10576 10576 10575 10576 10579 10583 10587 10589 10589 10590 10591 10591 10592 10592 10592 10592 10592 10592 10593 10593 10593 10592 10592 10592 10592 10591 10590 10589 10589 10588 10586 10585 10584 10583 10582 10581 10581 10580 10579 10578 10577 10576 10576 10576 10575 10575 10575 10575 10575 10575 10574 10574 10573 10573 10572 10572 10571 10569 10568 10567 10566 10566 10565 10564 10563 10563 10562 10561 10561 10560 10559
10566 10567 10568 10568 10569 10571 10571 10571 10574 10575 10575 10574 10573 10571 10571 10571 10570 10570 10571 10575 10579 10583 10583 10584 10584 10585 10586 10586 10586 10586 10586 10586 10586 10586 10586 10586 10586 10585 10585 10585 10584 10583 10582 10581 10580 10579 10578 10577 10576 10575 10574 10573 10573 10572 10571 10570 10569 10568 10568 10568 10567 10567 10567 10567 10566 10566 10565 10565 10565 10564 10564 10562 10561 10559 10558 10557 10556 10556 10555 10555 10554 10553 10552 10551 10550
10561 10563 10565 10564 10565 10566 10566 10567 10569 10570 10569 10569 10568 10566 10567 10567 10567 10567 10567 10568 10571 10573 10574 10574 10575 10576 10577 10578 10578 10578 10578 10578 10578 10578 10578 10578 10578 10578 10577 10577 10576 10575 10575 10574 10573 10573 10572 10571 10571 10570 10569 10568 10567 10567 10566 10564 10563 10562 10561 10560 10560 10559 10559 10559 10558 10558 10558 10557 10557 10556 10556 10554 10553 10551 10550 10548 10547 10547 10546 10545 10544 10543 10542 10541 10540
10558 10559 10561 10562 10563 10564 10563 10563 10564 10564 10563 10564 10564 10563 10564 10564 10564 10564 10565 10565 10565 10565 10565 10566 10567 10568 10568 10569 10569 10570 10569 10569 10569 10569 10569 10569 10569 10569 10569 10568 10567 10567 10567 10567 10567 10566 10566 10565 10565 10564 10563 10562 10561 10560 10560 10559 10557 10556 10555 10554 10553 10552 10552 10551 10551 10550 10549 10549 10548 10547 10546 10544 10543 10541 10540 10539 10538 10537 10536 10535 10534 10533 10531 10530 10529
10554 10555 10557 10559 10561 10561 10559 10558 10558 10558 10559 10559 10560 10559 10559 10559 10559 10559 10559 10559 10560 10559 10559 10559 10560 10561 10562 10562 10562 10562 10561 10561 10560 10560 10561 10561 10561 10561 10560 10560 10559 10559 10560 10559 10559 10559 10559 10558 10558 10557 10557 10556 10555 10554 10553 10552 10551 10550 10549 10548 10547 10546 10545 10544 10543 10543 10542 10540 10539 10537 10536 10534 10533 10531 10530 10530 10529 10527 10526 10525 10523 10522 10521 10520 10519
10550 10551 10552 10555 10557 10557 10554 10553 10553 10554 10555 10556 10556 10555 10555 10554 10554 10554 10554 10554 10554 10554 10554 10554 10555 10555 10555 10555 10555 10555 10554 10554 10553 10553 10553 10553 10553 10553 10553 10552 10552 10552 10552 10552 10552 10551 10551 10550 10550 10550 10549 10548 10547 10547 10546 10545 10544 10543 10542 10541 10540 10540 10538 10537 10536 10535 10534 10532 10531 10529 10527 10525 10523 10522 10521 10519 10519 10518 10516 10515 10514 10513 10512 10510 10509
10543 10545 10546 10549 10551 10550 10549 10549 10550 10550 10550 10551 10551 10550 10550 10549 10549 10550 10550 10550 10549 10548 10549 10549 10549 10549 10548 10547 10547 10547 10547 10547 10546 10546 10546 10546 10546 10546 10546 10545 10545 10544 10544 10543 10543 10542 10541 10541 10541 10541 10541 10541 10540 10539 10539 10538 10537 10536 10535 10533 10532 10531 10531 10530 10528 10527 10525 10524 10522 10520 10519 10517 10515 10513 10512 10510 10509 10508 10507 10506 10504 10503 10502 10501 10499
10536 10537 10539 10541 10543 10543 10543 10545 10545 10543 10542 10543 10545 10544 10543 10543 10544 10545 10544 10543 10543 10542 10542 10543 10543 10541 10540 10539 10539 10539 10540 10540 10540 10539 10539 10539 10538 10538 10538 10537 10536 10536 10535 10535 10535 10534 10534 10534 10534 10534 10534 10534 10533 10533 10532 10532 10531 10529 10528 10527 10525 10524 10523 10522 10521 10519 10517 10516 10515 10513 10512 10510 10508 10506 10504 10503 10501 10500 10498 10497 10495 10494 10493 10492 10490
10529 10530 10531 10533 10534 10536 10537 10538 10538 10536 10533 10535 10538 10537 10536 10537 10538 10538 10538 10537 10536 10537 10537 10536 10535 10534 10533 10532 10530 10530 10531 10531 10531 10531 10531 10531 10531 10531 10531 10530 10529 10529 10529 10529 10529 10529 10528 10528 10528 10527 10527 10527 10527 10526 10526 10525 10524 10523 10522 10520 10518 10516 10515 10514 10513 10511 10510 10508 10507 10506 10504 10503 10501 10499 10497 10495 10493 10491 10490 10488 10487 10485 10484 10482 10480
10523 10523 10524 10525 10527 10528 10529 10530 10531 10529 10528 10529 10530 10529 10529 10530 10531 10531 10531 10530 10530 10530 10529 10527 10527 10526 10525 10524 10522 10523 10522 10521 10522 10522 10521 10521 10522 10523 10522 10522 10522 10522 10522 10522 10522 10522 10521 10521 10521 10520 10520 10519 10518 10518 10518 10517 10516 10515 10514 10513 10511 10508 10506 10505 10503 10501 10499 10498 10496 10495 10494 10493 10491 10490 10488 10486 10484 10482 10480 10478 10477 10475 10473 10471 10469
10516 10517 10517 10518 10520 10521 10522 10523 10523 10524 10524 10523 10521 10520 10521 10523 10524 10524 10524 10523 10523 10522 10519 10518 10520 10520 10518 10516 10515 10515 10514 10513 10514 10515 10513 10512 10513 10513 10513 10512 10512 10512 10512 10512 10512 10512 10512 10511 10511 10511 10510 10509 10509 10509 10508 10507 10506 10505 10504 10503 10502 10500 10498 10496 10493 10491 10488 10486 10485 10484 10482 10480 10479 10477 10476 10474 10473 10471 10469 10468 10466 10464 10462 10460 10457
10508 10510 10510 10511 10513 10514 10516 10517 10516 10517 10517 10515 10512 10513 10515 10516 10517 10518 10517 10515 10516 10515 10511 10509 10511 10514 10513 10509 10505 10505 10506 10506 10506 10507 10507 10507 10506 10505 10505 10504 10503 10502 10502 10502 10501 10501 10501 10500 10500 10499 10499 10498 10498 10498 10497 10496 10495 10494 10492 10490 10489 10488 10486 10484 10482 10480 10478 10476 10475 10473 10471 10469 10467 10466 10464 10462 10461 10459 10458 10456 10454 10452 10450 10447 10445
10499 10501 10502 10504 10506 10507 10508 10509 10509 10510 10509 10506 10504 10506 10508 10508 10509 10510 10509 10507 10507 10506 10504 10502 10502 10505 10506 10500 10495 10496 10499 10498 10497 10497 10498 10498 10498 10497 10497 10496 10495 10494 10493 10493 10492 10491 10490 10489 10488 10487 10487 10486 10486 10485 10485 10484 10483 10481 10480 10477 10476 10474 10473 10472 10469 10467 10466 10465 10464 10462 10460 10459 10457 10456 10454 10453 10451 10449 10447 10445 10443 10440 10438 10435 10433
10489 10491 10495 10497 10498 10499 10499 10500 10501 10502 10502 10500 10498 10498 10498 10499 10500 10501 10500 10499 10498 10498 10496 10495 10494 10496 10496 10492 10488 10489 10490 10489 10489 10489 10488 10488 10488 10487 10487 10486 10485 10484 10484 10483 10482 10481 10480 10478 10477 10476 10476 10475 10473 10472 10472 10471 10470 10469 10466 10464 10463 10462 10461 10459 10457 10456 10454 10453 10452 10450 10449 10448 10447 10446 10445 10444 10442 10440 10438 10436 10433 10431 10428 10425 10423
10478 10482 10487 10488 10489 10490 10491 10491 10492 10493 10493 10492 10491 10489 10488 10488 10490 10491 10490 10489 10489 10489 10488 10487 10486 10487 10487 10485 10483 10482 10482 10481 10481 10480 10479 10478 10478 10477 10476 10476 10475 10474 10474 10473 10471 10470 10469 10467 10466 10466 10465 10464 10462 10462 10461 10460 10458 10456 10453 10451 10451 10450 10449 10447 10445 10444 10442 10440 10439 10438 10438 10437 10436 10435 10434 10433 10432 10431 10429 10427 10424 10421 10419 10416 10414
10471 10472 10475 10477 10479 10480 10481 10482 10483 10483 10483 10483 10482 10481 10480 10480 10480 10480 10480 10479 10479 10479 10478 10478 10477 10477 10477 10476 10475 10474 10473 10472 10471 10471 10470 10468 10467 10467 10466 10465 10464 10464 10462 10461 10459 10458 10457 10456 10455 10454 10454 10454 10453 10451 10449 10447 10445 10442 10440 10439 10439 10438 10437 10435 10433 10431 10430 10428 10427 10426 10426 10425 10423 10423 10422 10421 10421 10420 10419 10417 10415 10412 10410 10407 10404
10464 10463 10463 10464 10466 10468 10469 10471 10472 10472 10472 10472 10471 10470 10470 10471 10471 10471 10470 10469 10468 10468 10468 10467 10467 10467 10466 10466 10465 10464 10463 10462 10460 10459 10459 10458 10457 10457 10455 10454 10453 10452 10451 10449 10448 10446 10445 10444 10443 10442 10443 10443 10442 10440 10437 10435 10432 10429 10428 10427 10426 10425 10424 10422 10420 10419 10418 10417 10415 10414 10413 10412 10410 10410 10410 10410 10410 10409 10408 10407 10405 10402 10400 10396 10393
10457 10456 10455 10455 10455 10456 10457 10458 10460 10461 10461 10460 10460 10459 10458 10458 10459 10460 10460 10459 10458 10457 10457 10456 10455 10455 10455 10454 10454 10454 10453 10450 10448 10448 10448 10447 10446 10445 10444 10443 10442 10441 10440 10438 10435 10433 10431 10430 10430 10431 10431 10431 10430 10428 10425 10422 10419 10417 10415 10414 10413 10411 10410 10409 10408 10407 10406 10404 10403 10401 10399 10397 10397 10397 10398 10398 10399 10398 10397 10396 10393 10391 10388 10385 10381
10449 10449 10449 10448 10448 10447 10447 10446 10447 10448 10448 10448 10447 10447 10446 10446 10446 10446 10447 10447 10446 10446 10445 10445 10444 10443 10443 10443 10442 10442 10440 10438 10437 10437 10435 10433 10433 10434 10432 10431 10430 10429 10427 10425 10422 10419 10417 10417 10418 10418 10417 10417 10417 10415 10413 10410 10407 10404 10402 10400 10400 10399 10398 10396 10395 10394 10392 10390 10388 10386 10383 10382 10383 10384 10385 10385 10386 10386 10384 10382 10380 10377 10375 10372 10369
10441 10440 10440 10440 10440 10439 10438 10437 10436 10436 10436 10436 10436 10435 10435 10435 10434 10434 10433 10433 10433 10433 10433 10432 10431 10431 10431 10429 10428 10428 10427 10426 10426 10424 10419 10419 10421 10421 10418 10418 10417 10415 10413 10411 10409 10407 10406 10406 10406 10405 10405 10405 10405 10403 10400 10396 10392 10389 10387 10386 10385 10385 10383 10382 10381 10380 10378 10376 10373 10370 10368 10368 10369 10370 10371 10372 10372 10371 10369 10367 10366 10365 10363 10360 10357
10431 10431 10431 10431 10431 10430 10429 10428 10427 10426 10426 10426 10425 10425 10424 10424 10423 10423 10422 10421 10420 10419 10419 10419 10419 10418 10418 10416 10415 10414 10413 10412 10412 10408 10405 10406 10409 10407 10405 10405 10403 10401 10401 10399 10395 10395 10397 10396 10394 10393 10394 10394 10393 10391 10387 10380 10374 10372 10372 10371 10370 10369 10368 10367 10365 10364 10362 10360 10357 10354 10353 10354 10355 10355 10357 10359 10359 10357 10355 10354 10354 10353 10351 10348 10345
10422 10421 10421 10421 10421 10421 10420 10419 10419 10418 10417 10416 10416 10415 10414 10414 10413 10413 10412 10411 10410 10409 10407 10407 10407 10407 10406 10405 10404 10403 10401 10400 10400 10397 10393 10394 10395 10394 10393 10392 10389 10388 10390 10388 10383 10384 10385 10382 10379 10378 10379 10381 10381 10379 10375 10367 10359 10357 10356 10355 10353 10352 10352 10351 10350 10349 10347 10344 10341 10339 10338 10339 10339 10340 10342 10344 10343 10342 10342 10342 10342 10341 10338 10336 10333
10412 10411 10411 10411 10411 10411 10411 10411 10410 10410 10409 10408 10407 10406 10404 10404 10403 10403 10402 10401 10401 10400 10399 10399 10399 10397 10396 10395 10394 10393 10391 10389 10388 10387 10385 10383 10382 10381 10381 10380 10376 10375 10376 10374 10372 10372 10370 10367 10366 10365 10363 10365 10366 10365 10361 10355 10348 10345 10343 10340 10338 10336 10335 10335 10335 10333 10331 10329 10326 10324 10323 10323 10323 10324 10325 10326 10326 10326 10326 10327 10327 10326 10324 10322 10318
10401 10400 10400 10401 10401 10401 10401 10401 10400 10399 10398 10397 10397 10396 10395 10393 10392 10392 10392 10391 10391 10390 10389 10389 10389 10389 10388 10386 10384 10383 10382 10379 10377 10376 10375 10373 10371 10369 10368 10367 10365 10363 10362 10361 10362 10360 10355 10353 10354 10352 10349 10349 10349 10348 10347 10345 10338 10333 10330 10329 10327 10324 10321 10320 10319 10318 10316 10313 10310 10308 10308 10309 10309 10308 10308 10309 10310 10311 10312 10313 10313 10312 10310 10308 10305
10389 10389 10390 10390 10390 10390 10390 10389 10388 10387 10387 10386 10386 10385 10385 10384 10383 10381 10380 10380 10380 10380 10379 10378 10377 10376 10375 10374 10372 10371 10370 10369 10366 10364 10362 10361 10360 10358 10356 10355 10353 10352 10350 10350 10350 10348 10343 10341 10342 10340 10335 10333 10332 10331 10331 10331 10327 10322 10319 10318 10316 10313 10310 10308 10306 10305 10303 10300 10296 10295 10295 10296 10296 10295 10295 10295 10296 10298 10300 10301 10301 10300 10298 10297 10294
10377 10378 10378 10378 10378 10377 10377 10376 10376 10375 10375 10374 10373 10373 10373 10373 10373 10371 10369 10368 10367 10367 10367 10367 10365 10364 10362 10361 10359 10357 10355 10354 10354 10352 10351 10349 10348 10346 10344 10341 10340 10340 10339 10339 10338 10336 10332 10329 10328 10327 10323 10320 10318 10316 10316 10315 10314 10311 10308 10305 10303 10301 10299 10298 10295 10293 10290 10288 10286 10285 10285 10284 10284 10283 10283 10283 10284 10287 10289 10290 10289 10288 10287 10286 10284
10365 10366 10365 10365 10364 10363 10363 10363 10362 10362 10362 10361 10361 10360 10359 10359 10359 10359 10358 10356 10355 10353 10353 10352 10351 10350 10350 10349 10348 10345 10342 10339 10338 10337 10337 10336 10336 10335 10332 10328 10325 10325 10325 10325 10324 10322 10319 10316 10314 10312 10310 10307 10305 10303 10302 10301 10300 10299 10296 10292 10289 10289 10289 10287 10284 10280 10278 10277 10276 10275 10274 10273 10272 10273 10273 10273 10274 10277 10279 10279 10279 10278 10277 10276 10274
10353 10353 10352 10351 10351 10350 10349 10349 10349 10348 10348 10348 10347 10346 10346 10345 10344 10344 10343 10342 10341 10339 10339 10338 10336 10335 10334 10333 10333 10332 10330 10327 10325 10323 10322 10321 10321 10321 10320 10318 10314 10311 10310 10309 10308 10306 10304 10302 10299 10296 10294 10291 10289 10289 10288 10287 10287 10286 10284 10281 10278 10278 10278 10275 10272 10269 10267 10266 10265 10264 10263 10263 10262 10263 10264 10265 10267 10269 10269 10269 10269 10268 10267 10266 10266
10340 10339 10339 10338 10337 10337 10336 10335 10335 10334 10334 10333 10333 10332 10332 10331 10330 10329 10327 10325 10324 10322 10322 10323 10323 10323 10321 10319 10316 10314 10314 10313 10311 10310 10309 10307 10305 10303 10302 10302 10301 10299 10296 10294 10292 10290 10289 10286 10283 10280 10277 10274 10273 10273 10272 10272 10273 10273 10273 10271 10268 10266 10264 10263 10261 10259 10258 10257 10255 10253 10253 10254 10254 10254 10255 10257 10258 10260 10260 10259 10259 10258 10258 10258 10258
10327 10326 10325 10325 10324 10324 10323 10322 10321 10320 10320 10319 10319 10318 10318 10316 10315 10314 10312 10310 10308 10307 10305 10305 10306 10307 10307 10306 10304 10300 10298 10296 10295 10294 10293 10291 10290 10287 10285 10284 10283 10282 10280 10278 10276 10275 10273 10269 10266 10264 10261 10258 10257 10257 10258 10258 10258 10259 10260 10260 10257 10252 10251 10251 10251 10250 10249 10247 10244 10243 10244 10246 10247 10247 10247 10248 10249 10250 10250 10249 10249 10248 10248 10249 10249
10313 10312 10312 10311 10311 10310 10309 10309 10308 10307 10306 10306 10305 10304 10303 10302 10301 10299 10297 10296 10295 10293 10292 10290 10288 10287 10287 10289 10289 10287 10284 10282 10280 10278 10276 10274 10273 10271 10270 10268 10266 10264 10262 10261 10260 10259 10257 10253 10250 10248 10246 10243 10242 10243 10245 10245 10244 10243 10245 10246 10243 10239 10238 10239 10239 10239 10238 10236 10235 10236 10237 10238 10239 10239 10239 10239 10239 10239 10239 10239 10238 10238 10238 10239 10241
10299 10298 10298 10298 10297 10296 10296 10295 10295 10294 10293 10292 10292 10291 10289 10288 10286 10285 10284 10283 10282 10280 10279 10277 10274 10271 10270 10270 10272 10272 10270 10268 10265 10263 10261 10259 10257 10254 10252 10251 10250 10248 10246 10245 10244 10242 10241 10240 10237 10233 10230 10228 10228 10229 10231 10232 10231 10231 10231 10231 10229 10227 10227 10227 10227 10226 10226 10226 10227 10229 10230 10230 10231 10231 10231 10230 10230 10230 10230 10229 10228 10228 10229 10231 10233
10285 10285 10285 10284 10284 10283 10282 10282 10281 10280 10280 10279 10279 10277 10276 10274 10273 10272 10271 10270 10269 10268 10266 10264 10261 10259 10257 10255 10255 10255 10255 10253 10251 10249 10247 10244 10241 10239 10237 10236 10235 10233 10232 10230 10229 10227 10228 10228 10225 10221 10217 10216 10216 10216 10217 10218 10219 10219 10220 10218 10216 10215 10215 10215 10214 10215 10216 10218 10220 10221 10222 10222 10222 10222 10222 10221 10221 10221 10220 10220 10220 10220 10222 10223 10225
10272 10272 10272 10271 10271 10270 10270 10269 10268 10267 10267 10267 10266 10264 10262 10262 10261 10260 10259 10257 10256 10255 10253 10251 10249 10247 10245 10243 10242 10240 10239 10238 10237 10236 10234 10231 10229 10226 10224 10222 10222 10220 10219 10217 10216 10215 10215 10215 10213 10210 10208 10206 10205 10205 10206 10206 10207 10207 10207 10205 10203 10203 10204 10205 10205 10207 10210 10211 10212 10212 10212 10212 10213 10212 10212 10213 10212 10211 10211 10212 10212 10213 10214 10216 10217
10260 10260 10260 10260 10259 10258 10257 10256 10256 10256 10256 10255 10253 10251 10251 10250 10250 10248 10246 10245 10244 10243 10241 10239 10237 10235 10234 10232 10230 10228 10227 10226 10224 10223 10221 10220 10218 10215 10213 10211 10210 10210 10208 10207 10205 10204 10204 10203 10202 10200 10199 10197 10195 10195 10196 10196 10195 10195 10195 10195 10193 10193 10194 10196 10197 10199 10202 10203 10203 10203 10203 10203 10203 10203 10203 10203 10202 10202 10203 10204 10205 10206 10208 10209 10209
10249 10249 10249 10248 10247 10246 10245 10245 10245 10245 10244 10243 10241 10241 10240 10239 10238 10236 10235 10234 10233 10231 10229 10227 10226 10224 10224 10222 10220 10218 10216 10215 10214 10212 10210 10209 10207 10205 10203 10201 10200 10200 10199 10197 10195 10193 10192 10191 10190 10189 10188 10187 10186 10186 10186 10185 10184 10184 10184 10184 10184 10184 10186 10187 10188 10190 10192 10193 10194 10194 10194 10193 10193 10193 10194 10194 10194 10195 10196 10197 10198 10200 10201 10202 10201
10239 10239 10239 10238 10236 10235 10234 10235 10235 10234 10233 10232 10231 10231 10230 10228 10227 10225 10224 10223 10222 10221 10219 10217 10215 10215 10214 10212 10210 10208 10207 10206 10204 10202 10199 10198 10197 10195 10193 10192 10191 10190 10189 10187 10185 10183 10182 10180 10179 10178 10178 10178 10178 10177 10176 10174 10174 10174 10175 10175 10175 10176 10178 10179 10179 10182 10184 10185 10185 10186 10185 10184 10184 10184 10185 10185 10186 10187 10189 10190 10192 10194 10195 10195 10194
10230 10229 10229 10228 10226 10225 10225 10225 10225 10224 10223 10222 10222 10221 10220 10218 10217 10216 10215 10214 10212 10211 10209 10207 10206 10205 10204 10202 10200 10199 10197 10196 10194 10192 10190 10189 10188 10186 10184 10183 10181 10180 10179 10178 10176 10174 10173 10172 10170 10170 10169 10170 10170 10169 10167 10166 10166 10166 10166 10167 10168 10169 10171 10171 10172 10174 10175 10176 10176 10177 10176 10175 10175 10176 10176 10177 10178 10180 10182 10184 10185 10187 10187 10187 10188
10221 10220 10219 10218 10217 10216 10217 10217 10216 10215 10214 10213 10213 10212 10211 10209 10207 10206 10205 10204 10203 10201 10199 10198 10197 10196 10195 10193 10191 10190 10189 10187 10185 10183 10181 10180 10179 10177 10176 10174 10172 10171 10170 10169 10168 10166 10165 10164 10162 10162 10162 10162 10162 10162 10161 10160 10159 10159 10159 10159 10161 10162 10164 10165 10165 10166 10166 10167 10167 10168 10168 10168 10169 10169 10170 10171 10172 10173 10175 10177 10179 10180 10180 10181 10182
10212 10211 10210 10209 10208 10208 10208 10208 10207 10206 10205 10204 10204 10203 10202 10200 10199 10198 10197 10196 10194 10193 10191 10189 10188 10188 10186 10184 10183 10182 10180 10179 10176 10175 10173 10172 10171 10169 10167 10166 10164 10163 10162 10161 10160 10159 10158 10156 10156 10155 10155 10154 10155 10155 10154 10153 10153 10153 10153 10153 10154 10155 10156 10158 10158 10158 10158 10159 10159 10160 10161 10161 10162 10163 10164 10165 10166 10168 10169 10171 10172 10173 10174 10175 10176
10204 10203 10202 10201 10201 10201 10200 10199 10199 10198 10197 10196 10195 10194 10193 10192 10191 10189 10188 10187 10186 10185 10183 10181 10180 10179 10178 10176 10175 10174 10172 10171 10169 10167 10165 10164 10164 10162 10160 10158 10157 10156 10155 10154 10153 10153 10152 10150 10149 10148 10148 10148 10148 10147 10147 10146 10146 10146 10146 10147 10147 10148 10149 10150 10151 10152 10152 10152 10153 10153 10154 10155 10156 10157 10158 10160 10161 10163 10164 10165 10166 10167 10168 10169 10170
10196 10195 10194 10194 10194 10193 10193 10192 10191 10190 10189 10188 10187 10186 10185 10184 10183 10182 10181 10179 10178 10177 10176 10174 10173 10172 10170 10169 10168 10167 10165 10164 10162 10160 10158 10157 10156 10155 10154 10152 10150 10149 10148 10147 10146 10146 10146 10144 10143 10142 10142 10142 10141 10141 10140 10139 10139 10140 10140 10141 10141 10142 10143 10144 10145 10145 10146 10146 10146 10147 10148 10149 10150 10152 10153 10155 10156 10158 10158 10159 10160 10161 10162 10164 10165
10188 10187 10187 10186 10186 10186 10185 10184 10184 10182 10181 10180 10179 10178 10177 10177 10176 10175 10174 10173 10171 10170 10168 10167 10166 10165 10163 10162 10161 10160 10159 10157 10156 10155 10153 10151 10149 10148 10147 10146 10145 10143 10142 10141 10140 10140 10139 10139 10138 10137 10136 10136 10136 10135 10135 10134 10134 10134 10135 10135 10136 10137 10137 10138 10138 10139 10139 10140 10140 10141 10142 10143 10145 10146 10148 10149 10150 10151 10152 10154 10155 10156 10158 10159 10160
10180 10180 10180 10179 10179 10179 10178 10177 10176 10175 10174 10173 10172 10171 10170 10169 10169 10168 10167 10166 10165 10163 10162 10160 10159 10158 10157 10156 10154 10153 10152 10151 10149 10148 10147 10146 10144 10142 10141 10140 10139 10138 10137 10136 10135 10134 10133 10133 10132 10132 10131 10131 10131 10130 10130 10130 10129 10129 10129 10130 10130 10131 10131 10132 10132 10133 10133 10134 10135 10135 10137 10138 10139 10141 10142 10143 10144 10146 10147 10149 10150 10151 10153 10154 10156
10174 10173 10173 10173 10172 10172 10171 10170 10170 10169 10168 10166 10165 10164 10163 10162 10162 10161 10160 10159 10158 10157 10156 10154 10153 10152 10151 10150 10148 10147 10146 10145 10143 10142 10141 10140 10139 10138 10136 10135 10134 10133 10132 10131 10130 10129 10128 10128 10127 10127 10126 10126 10126 10125 10125 10125 10125 10125 10125 10125 10125 10126 10126 10127 10127 10128 10128 10129 10130 10131 10132 10133 10134 10135 10137 10138 10140 10141 10143 10144 10146 10147 10148 10150 10151